Wind_Speed
1 2 2 1 1 0 1 1 1 1 1 1 1 1 1 1 1 1 1 1 2 2 2 2 3 3 3 3 3 3 3 3 3 3 3 3 3 3 3 4 4 4 4
0 1 1 1 1 1 1 2 2 2 2 1 1 1 1 2 2 2 2 2 2 3 3 3 3 3 3 3 3 3 4 4 4 4 4 4 4 4 4 5 5 6 6
1 1 1 2 2 2 2 2 2 2 2 2 2 2 2 3 3 3 3 3 3 3 3 4 4 4 4 4 4 4 4 4 5 5 5 5 5 5 5 5 6 6 6
2 3 3 3 4 4 3 3 3 2 3 3 3 4 4 4 4 4 4 4 4 4 4 4 5 5 5 5 5 5 5 5 5 5 5 6 6 6 6 6 6 7 7
4 4 5 4 4 4 4 4 4 4 4 4 4 4 4 4 4 4 4 4 4 4 5 5 5 5 6 6 6 6 6 6 6 6 6 6 7 7 7 7 7 7 8
5 5 5 5 5 5 5 4 4 4 5 5 5 5 5 5 5 5 5 6 5 5 6 6 6 6 6 7 7 7 7 7 7 7 7 7 7 8 8 7 8 8 8
6 6 6 6 5 6 6 5 6 6 5 5 5 5 6 6 6 6 6 6 7 7 7 6 6 7 7 7 8 8 8 7 7 8 8 8 8 8 8 7 8 8 8
7 7 6 7 6 6 7 7 7 7 7 6 7 7 7 7 8 7 7 7 7 7 8 7 7 8 8 8 8 8 8 8 8 9 9 9 9 8 8 9 9 9 8
8 7 8 7 8 8 8 8 8 8 7 7 7 8 8 8 9 9 9 9 8 8 8 8 8 9 8 8 9 9 8 8 9 9 9 9 9 9 9 9 9 9 8
8 9 9 8 9 9 8 8 8 7 8 8 9 9 9 10 10 9 9 10 10 10 10 10 10 10 10 9 9 9 9 9 9 9 10 10 10 10 10 10 9 9 9
10 10 10 9 9 9 9 9 8 8 8 9 9 10 10 9 10 10 10 11 11 11 11 11 11 11 10 10 10 10 10 9 9 9 9 10 10 10 10 9 9 9 9
11 11 11 10 11 10 10 10 10 10 10 10 10 10 11 10 10 11 11 12 12 12 12 11 11 11 11 10 10 10 9 9 9 10 10 10 10 10 10 9 10 9 9
12 12 11 11 11 11 11 11 11 11 11 11 11 11 11 11 11 11 11 11 12 12 12 11 11 10 10 10 10 10 9 9 9 10 10 10 10 10 10 10 10 10 10
12 12 11 11 11 11 11 11 10 11 11 11 11 11 11 12 12 12 12 12 12 12 11 11 11 11 10 10 10 10 10 10 10 10 10 10 10 10 10 10 10 9 10
12 12 11 11 11 11 11 11 11 12 12 12 12 12 12 12 13 13 12 13 13 12 12 11 11 11 11 11 11 11 11 11 10 10 10 10 10 10 10 10 9 9 9
13 13 12 13 12 12 12 12 12 13 13 13 13 13 13 13 13 13 13 13 13 12 12 11 10 11 11 11 11 10 10 10 10 10 10 11 11 11 10 10 10 10 9
13 13 13 13 13 14 14 14 14 14 14 14 13 13 13 13 13 13 13 13 13 12 12 12 12 12 11 11 10 10 10 10 11 11 11 11 11 12 11 11 10 10 10
13 13 14 14 14 14 14 15 15 15 14 14 14 14 14 14 14 14 14 13 13 13 12 12 11 11 11 11 10 11 11 11 11 11 11 11 11 11 11 11 10 10 10
14 14 14 15 15 15 15 15 15 15 15 15 14 14 14 14 14 14 14 13 13 13 12 12 12 12 11 11 11 12 11 11 12 11 11 11 11 11 11 11 11 11 11
15 15 15 15 15 15 15 15 15 16 16 15 14 14 14 14 13 13 14 14 13 13 12 12 12 12 11 11 12 12 13 12 12 12 12 12 12 12 12 12 12 12 12
15 15 16 16 15 15 15 15 16 16 15 15 14 14 13 13 14 13 13 14 13 13 12 12 12 12 12 12 13 13 13 13 13 13 13 13 13 12 12 12 12 12 12
16 15 15 15 16 15 15 16 15 15 15 14 14 13 13 13 13 13 14 14 14 13 12 12 12 12 12 12 12 13 13 13 13 13 13 12 12 12 12 12 12 12 12
16 16 15 15 16 16 16 16 16 15 15 14 13 13 13 12 12 13 14 14 14 13 12 12 12 12 12 12 12 12 12 12 12 12 13 13 13 12 12 12 12 12 12
16 16 16 16 16 16 16 16 16 15 15 15 14 13 13 13 13 14 14 13 13 13 13 12 12 12 12 11 12 12 12 12 13 13 13 13 13 13 13 13 13 13 13
16 16 16 16 16 16 16 16 16 15 15 14 14 13 13 13 14 14 13 13 13 13 13 13 12 12 12 12 12 12 13 13 13 13 13 13 13 13 13 13 14 13 13
16 17 17 16 16 16 16 16 16 15 14 14 14 14 14 14 14 13 13 13 13 13 12 12 13 13 13 13 13 13 14 14 13 13 13 14 14 14 14 13 14 14 14
Wind_Direction
146 160 166 161 171 203 237 237 242 214 218 233 212 213 235 237 246 270 324 339 334 335 338 342 344 351 350 352 352 347 344 338 334 330 323 317 314 304 293 288 286 283 284
183 176 193 224 250 271 275 254 261 241 232 261 251 260 280 263 265 276 292 306 307 312 321 321 325 335 335 335 332 328 327 325 326 321 316 313 307 301 292 291 286 285 285
282 271 271 282 283 278 279 270 264 257 244 256 260 264 276 279 276 277 283 297 294 293 301 305 305 308 313 311 311 312 319 318 316 313 308 308 306 300 295 291 289 288 288
282 280 279 286 285 286 280 275 277 272 258 258 267 270 273 282 284 291 290 299 299 298 301 300 296 298 299 297 301 305 309 311 310 307 305 306 303 294 291 290 291 287 284
280 282 283 285 286 287 285 278 282 279 273 272 274 272 269 282 293 296 294 298 298 299 296 294 294 298 295 294 298 302 301 301 303 304 303 304 300 295 289 289 289 287 285
276 279 280 279 285 289 291 288 288 286 278 280 277 277 277 285 290 289 286 291 295 299 294 291 294 297 299 296 296 298 296 295 297 299 299 298 296 295 293 288 289 288 289
275 277 279 279 287 289 291 293 291 288 288 287 284 288 291 286 285 285 283 286 289 292 292 291 294 296 298 297 296 297 294 292 294 297 296 295 294 294 293 287 287 289 289
277 279 281 280 285 290 292 290 296 296 291 292 292 292 294 292 289 287 289 285 285 291 292 289 292 297 297 294 294 295 293 291 290 293 298 297 296 295 291 289 287 287 285
278 278 282 280 280 285 288 288 289 291 288 288 294 291 290 290 292 288 288 290 289 288 292 291 291 294 295 296 295 292 292 291 288 290 293 294 295 295 291 289 287 283 283
279 277 277 278 280 284 286 288 289 289 286 288 289 291 288 286 289 289 290 289 286 289 294 292 288 289 292 290 290 290 290 290 290 291 294 294 292 291 290 288 286 283 282
280 280 277 277 281 285 286 287 289 290 287 285 288 288 290 291 290 291 288 290 289 290 293 292 289 290 290 288 287 287 288 291 290 290 293 292 293 293 289 288 288 285 283
278 277 279 281 282 284 283 282 284 287 290 290 291 289 288 288 289 289 292 293 295 294 292 289 288 288 287 286 288 287 287 290 291 291 292 293 292 293 295 292 289 286 286
278 279 282 280 281 283 282 281 280 283 288 291 294 291 291 290 289 288 292 295 297 299 297 291 287 286 286 285 286 286 285 286 290 291 291 292 293 293 292 291 290 287 287
279 280 282 281 280 280 281 282 281 282 287 290 292 293 294 293 291 289 291 294 296 299 299 297 289 288 287 284 284 286 287 286 287 290 291 293 294 293 293 291 287 286 285
278 279 280 281 280 279 281 282 282 284 286 289 287 290 295 298 295 291 293 295 295 297 298 294 292 291 291 287 284 285 285 284 284 289 294 295 297 295 292 294 291 283 283
277 277 280 280 281 280 280 280 283 285 287 288 287 288 291 294 295 293 294 297 294 294 295 294 289 291 293 291 286 283 285 285 286 290 292 292 292 295 298 295 296 299 294
278 278 281 282 281 280 280 280 284 286 288 289 288 288 289 291 293 291 295 297 298 296 294 293 290 289 291 291 286 287 287 286 286 287 289 291 290 290 294 291 288 293 295
278 277 279 281 282 282 282 282 283 285 288 288 286 285 288 290 291 290 292 294 296 296 294 291 290 290 290 290 290 290 289 287 287 286 287 287 286 289 290 288 288 289 288
277 275 277 278 280 280 281 284 284 285 287 287 285 283 285 287 289 290 291 292 291 294 293 289 287 286 288 290 292 289 289 291 292 291 290 289 288 287 287 286 286 289 291
275 274 276 278 279 280 280 282 284 286 286 284 283 282 283 285 286 287 289 292 292 291 289 287 287 285 285 288 292 291 290 292 292 291 291 290 286 284 283 284 288 289 288
275 275 277 279 279 279 279 281 283 285 285 283 281 279 279 282 284 285 286 289 292 291 291 290 287 287 288 289 289 288 288 289 289 289 289 288 284 285 286 287 288 288 287
278 278 279 281 280 280 280 279 283 284 282 281 278 276 279 281 286 287 287 288 289 288 289 289 286 286 288 290 290 289 289 290 290 289 287 286 285 285 286 288 287 288 289
279 280 281 281 281 282 283 283 284 284 282 281 279 278 279 281 286 290 286 287 287 285 284 286 283 282 285 289 291 292 294 293 292 290 288 288 286 285 285 288 288 287 287
278 280 281 281 282 284 283 283 283 282 279 278 278 278 279 282 285 288 292 293 291 287 284 285 283 283 287 289 292 291 293 295 293 290 289 288 287 285 285 286 285 285 285
280 281 283 282 282 283 282 282 282 283 279 277 276 277 278 282 285 286 288 292 292 288 286 284 284 284 286 289 290 291 292 294 293 292 292 292 290 287 286 285 285 285 288
282 283 284 283 284 284 283 283 280 281 278 277 275 277 279 282 284 285 285 288 288 288 288 286 286 283 286 288 289 290 290 294 294 291 292 293 293 291 289 286 286 286 289
Height
5888 5887 5888 5888 5888 5887 5887 5887 5887 5887 5887 5887 5886 5886 5886 5886 5886 5886 5886 5886 5886 5886 5886 5886 5885 5885 5884 5883 5883 5883 5882 5882 5882 5882 5882 5882 5881 5881 5881 5881 5881 5881 5882
5888 5888 5888 5888 5888 5888 5887 5887 5887 5887 5887 5887 5887 5886 5886 5886 5886 5887 5886 5886 5886 5886 5886 5885 5885 5885 5884 5884 5883 5883 5882 5882 5882 5881 5881 5881 5881 5881 5881 5881 5880 5880 5881
5888 5888 5888 5888 5888 5887 5887 5887 5887 5887 5887 5887 5887 5886 5886 5886 5886 5886 5886 5886 5886 5886 5885 5885 5885 5884 5884 5883 5883 5882 5882 5882 5881 5881 5880 5880 5880 5880 5880 5880 5880 5880 5880
5888 5888 5888 5888 5887 5887 5887 5887 5887 5886 5886 5886 5886 5886 5886 5886 5886 5886 5885 5885 5885 5885 5885 5885 5884 5884 5883 5883 5882 5882 5881 5881 5881 5880 5880 5879 5879 5879 5879 5879 5879 5879 5879
5888 5888 5887 5887 5887 5887 5886 5886 5886 5886 5886 5886 5886 5886 5886 5885 5885 5885 5885 5885 5884 5884 5884 5884 5883 5883 5883 5882 5882 5881 5881 5880 5880 5880 5879 5879 5878 5878 5878 5878 5877 5877 5877
5887 5887 5887 5887 5886 5886 5886 5886 5886 5886 5886 5885 5885 5885 5885 5885 5885 5884 5884 5884 5884 5884 5883 5883 5883 5882 5882 5881 5881 5880 5880 5879 5879 5878 5878 5878 5877 5877 5876 5876 5876 5876 5876
5887 5886 5886 5886 5886 5886 5885 5885 5885 5885 5885 5884 5884 5884 5884 5884 5884 5883 5883 5883 5883 5882 5882 5882 5881 5881 5881 5880 5879 5879 5879 5878 5878 5877 5877 5876 5876 5875 5875 5875 5875 5874 5874
5886 5886 5886 5886 5885 5885 5885 5884 5884 5884 5884 5883 5883 5883 5883 5883 5882 5882 5882 5882 5881 5881 5881 5880 5880 5880 5879 5879 5878 5878 5877 5877 5876 5876 5875 5875 5874 5874 5874 5873 5873 5873 5873
5885 5885 5885 5884 5884 5884 5884 5883 5883 5883 5883 5883 5883 5882 5882 5882 5881 5881 5881 5880 5880 5880 5879 5879 5879 5878 5878 5877 5877 5876 5876 5875 5875 5874 5874 5873 5872 5872 5872 5871 5871 5871 5871
5884 5884 5884 5883 5883 5883 5882 5882 5882 5882 5881 5881 5881 5881 5881 5880 5880 5880 5879 5879 5878 5878 5878 5878 5877 5877 5876 5875 5875 5875 5874 5874 5873 5873 5872 5871 5871 5870 5870 5869 5869 5869 5869
5882 5882 5882 5882 5881 5881 5881 5881 5881 5880 5880 5880 5880 5879 5879 5879 5879 5878 5878 5878 5877 5877 5876 5876 5875 5875 5874 5874 5873 5873 5873 5872 5872 5871 5870 5870 5869 5868 5868 5868 5868 5868 5867
5881 5880 5880 5880 5880 5880 5879 5879 5879 5879 5879 5878 5878 5878 5878 5878 5877 5877 5876 5876 5875 5874 5874 5874 5873 5873 5872 5872 5872 5871 5871 5871 5870 5869 5869 5868 5867 5867 5866 5866 5866 5866 5865
5879 5878 5878 5878 5878 5878 5877 5877 5877 5877 5877 5877 5877 5876 5876 5876 5875 5875 5874 5874 5873 5873 5872 5872 5871 5871 5870 5870 5870 5869 5869 5869 5868 5868 5867 5866 5865 5865 5864 5864 5864 5863 5863
5877 5876 5876 5876 5876 5876 5875 5875 5875 5875 5875 5875 5875 5874 5874 5874 5873 5873 5873 5872 5871 5871 5870 5870 5869 5868 5868 5868 5868 5868 5867 5867 5866 5865 5865 5864 5864 5863 5863 5862 5861 5861 5861
5875 5875 5875 5874 5874 5874 5873 5873 5873 5873 5873 5873 5873 5872 5872 5871 5871 5871 5870 5870 5869 5869 5868 5867 5867 5866 5866 5866 5866 5865 5865 5864 5864 5863 5863 5862 5862 5861 5861 5860 5860 5859 5859
5873 5873 5872 5872 5872 5872 5871 5871 5871 5871 5871 5871 5870 5870 5869 5869 5869 5868 5868 5867 5867 5866 5866 5865 5865 5864 5864 5863 5863 5863 5863 5862 5862 5861 5861 5860 5860 5859 5859 5858 5858 5858 5857
5870 5870 5870 5870 5870 5870 5869 5869 5869 5869 5868 5868 5868 5868 5867 5867 5866 5866 5866 5865 5864 5864 5863 5863 5862 5862 5861 5861 5861 5860 5860 5860 5859 5859 5858 5858 5858 5857 5857 5856 5856 5856 5855
5867 5867 5867 5867 5867 5867 5867 5867 5866 5866 5866 5866 5865 5865 5865 5864 5864 5864 5863 5863 5862 5861 5861 5860 5860 5859 5859 5859 5858 5858 5858 5857 5857 5856 5856 5856 5855 5855 5855 5854 5854 5854 5853
5864 5864 5864 5864 5864 5864 5864 5863 5863 5863 5863 5863 5862 5862 5862 5862 5861 5861 5860 5860 5860 5859 5858 5858 5857 5857 5857 5856 5856 5855 5855 5855 5854 5854 5853 5853 5853 5853 5852 5852 5852 5851 5851
5861 5861 5861 5861 5861 5861 5861 5860 5860 5860 5860 5860 5859 5859 5859 5859 5858 5858 5858 5857 5857 5856 5856 5855 5855 5854 5854 5854 5853 5853 5852 5852 5852 5851 5851 5850 5850 5850 5850 5849 5849 5849 5849
5858 5858 5858 5858 5858 5857 5857 5857 5857 5857 5856 5856 5856 5856 5856 5855 5855 5855 5855 5854 5854 5853 5853 5852 5852 5852 5852 5851 5851 5850 5850 5849 5849 5848 5848 5847 5847 5847 5847 5847 5847 5846 5846
5855 5855 5855 5854 5854 5854 5854 5854 5853 5853 5853 5853 5852 5852 5852 5852 5852 5852 5852 5851 5851 5850 5850 5850 5849 5849 5849 5849 5848 5848 5847 5847 5846 5846 5845 5845 5844 5844 5844 5844 5844 5843 5843
5851 5851 5851 5851 5851 5850 5850 5850 5850 5850 5849 5849 5849 5849 5849 5849 5849 5849 5848 5848 5848 5848 5847 5847 5847 5847 5846 5846 5845 5845 5845 5844 5843 5843 5842 5842 5842 5841 5841 5840 5840 5840 5840
5848 5848 5848 5848 5847 5847 5846 5846 5846 5846 5846 5846 5846 5846 5846 5847 5846 5846 5845 5845 5845 5845 5845 5844 5844 5844 5844 5843 5843 5842 5842 5841 5841 5840 5839 5839 5838 5838 5838 5837 5837 5837 5836
5844 5844 5844 5844 5843 5843 5843 5843 5843 5842 5843 5843 5843 5843 5843 5843 5843 5842 5842 5842 5842 5842 5842 5841 5841 5841 5841 5840 5840 5839 5839 5838 5838 5837 5836 5836 5835 5835 5834 5834 5833 5833 5833
5840 5840 5840 5840 5840 5839 5839 5839 5839 5839 5839 5839 5839 5840 5840 5840 5840 5839 5839 5839 5839 5839 5838 5838 5838 5838 5837 5837 5837 5836 5836 5835 5834 5834 5833 5833 5832 5831 5831 5830 5830 5829 5829